Location: Stilling
(56.0622°N, 9.9882°E)
Time: 00:04:01
(UTC+00:00)

Cosmos 1805 Rocket - Pass Details

Date: 13 July 2020
Orbit: 607 x 629 km, 82.5° (Epoch: 03 August)

Event Time Altitude Azimuth Distance (km) Brightness Sun altitude
Exits shadow 23:02:29 18° 173° (S) 1,498 4.9 -12.1°
Maximum altitude 23:05:34 60° 97° (E) 703 3.8 -12.2°
Drops below altitude 10° 23:09:54 10° 18° (NNE) 1,989 7.4 -12.2°
Sets 23:12:10 0° 15° (NNE) 2,903 8.6 -12.2°
